sat.trackr.live / text

‹ back to catalog

STARLINK-36559

NORAD 67555 · 2026-014Z

PAYLOAD ACTIVE UNKNOWN

§ Identity

Operator
Country
US
Launch date
2026-01-22
Launch site
AFWTR
Launch vehicle
Mass (kg)
RCS (m²)

Purposes: comms

External: N2YO · Heavens-Above · Gunter

§ Orbital elements

Epoch: 2026-09-19T22:38:33.616032Z

Period
93.90 min
Inclination
97.2838°
Eccentricity
0.0001982
Mean motion
15.33481121 rev/d
Perigee alt
464.1 km
Apogee alt
466.8 km
Semi-major
6,843.6 km
B*
9.1384e-4
RAAN
148.3287°
Arg perigee
93.6763°
Mean anomaly
266.4707°
Rev number
3,854

§ Raw data

STARLINK-365591 67555U 26014Z   26262.94344463  .00029577  00000+0  91384-3 0  99932 67555  97.2838 148.3287 0001982  93.6763 266.4707 15.33481121 38545

JSON: /api/v1/satellites/67555 · /tle

For live sub-satellite position, see the globe view (requires WebGL).

§ Visibility from observer

Set your observer location to see the next 7 days of passes ≥ 10°. The values pass through the URL so the page stays shareable.

No JS? Fill the form by hand. The geolocation button needs JavaScript.